Dewpoint
-11 -11 -12 -12 -12 -10 -7 -4 -1 2 5 9 10 10 11 11 13 13 13 9 11 10 6 8 9 9 11 11 10 9 6 2 -1
-7 -7 -7 -7 -8 -9 -9 -10 -10 -9 -9 -6 -1 4 7 9 12 13 13 12 9 9 10 11 10 7 9 9 9 10 10 7 2
-8 -7 -6 -5 -5 -4 -5 -5 -5 -6 -7 -8 -9 -9 -7 1 8 10 11 12 10 10 9 10 10 10 10 10 10 10 11 11 6
-9 -8 -7 -6 -5 -5 -4 -4 -4 -4 -4 -4 -4 -4 -4 -2 1 -1 8 9 8 10 11 11 11 10 10 10 9 10 11 11 11
-8 -8 -7 -7 -7 -7 -6 -6 -6 -5 -5 -5 -5 -5 -4 -2 -2 3 3 -0 3 7 8 9 9 9 10 10 10 10 11 11 11
-9 -8 -8 -8 -8 -8 -8 -8 -8 -8 -8 -8 -8 -7 -5 -5 -3 -1 -2 1 5 7 7 6 7 7 8 8 10 11 11 11 10
-8 -8 -7 -6 -6 -7 -6 -6 -6 -6 -6 -6 -7 -7 -7 -8 -8 -6 -6 -4 -1 3 5 5 6 7 7 7 9 10 10 10 11
-6 -6 -5 -5 -5 -5 -5 -5 -5 -5 -5 -4 -4 -4 -4 -4 -4 -4 -6 -7 -6 -3 -1 1 1 2 3 3 4 6 8 8 8
-5 -5 -5 -5 -5 -5 -5 -5 -4 -5 -5 -5 -5 -4 -4 -3 -3 -3 -4 -4 -3 -3 -4 -3 -4 -3 -2 -1 1 1 2 2 2
-6 -5 -5 -6 -5 -6 -6 -6 -7 -8 -10 -12 -13 -11 -9 -8 -5 -0 -3 -3 -2 -1 -1 -1 -1 -1 -1 -2 -3 -3 -4 -4 -4
-8 -6 -7 -8 -11 -15 -18 -19 -21 -20 -21 -22 -25 -26 -25 -20 -13 -6 -4 -2 -0 1 1 1 1 1 1 5 6 2 -0 -1 -1
-7 -7 -9 -13 -18 -21 -22 -23 -24 -24 -24 -25 -25 -25 -20 -12 -10 -6 -2 -1 -0 0 -0 -0 -0 -0 0 1 2 1 -0 0 0
-7 -7 -11 -15 -17 -17 -18 -18 -18 -18 -19 -20 -22 -22 -19 -13 -7 -3 -1 0 0 -0 -1 -1 -0 -0 0 1 1 1 1 2 5
-7 -9 -12 -14 -14 -14 -13 -13 -13 -14 -15 -16 -19 -19 -10 -5 -3 -1 0 1 -2 -3 -4 -3 -2 -1 0 1 1 0 1 3 6
-7 -7 -10 -11 -11 -10 -9 -9 -9 -9 -10 -13 -15 -16 -11 -6 -2 0 -1 -1 -2 -9 -7 -9 -9 -6 -3 -1 -0 0 0 1 4
-6 -6 -6 -7 -8 -8 -8 -7 -6 -6 -7 -8 -7 -12 -13 -6 -3 -5 -7 -9 -12 -9 -6 -13 -25 -27 -21 -11 -6 -5 -4 -3 1
-5 -5 -5 -4 -5 -5 -6 -7 -6 -6 -5 -6 -8 -7 -6 -3 -8 -15 -18 -17 -12 -11 -16 -22 -26 -26 -25 -24 -21 -19 -18 -10 -5
-4 -4 -4 -4 -4 -4 -4 -4 -5 -6 -6 -5 -7 -7 -9 -7 -9 -14 -17 -19 -17 -19 -23 -24 -25 -25 -23 -21 -18 -18 -22 -25 -24
-4 -4 -4 -3 -3 -3 -3 -3 -3 -3 -6 -6 -5 -6 -8 -5 -7 -7 -10 -13 -18 -18 -21 -22 -24 -25 -21 -19 -18 -19 -20 -21 -22
-0 -2 -3 -3 -3 -2 -2 -3 -3 -3 -3 -4 -6 -6 -6 -6 -5 -4 -5 -5 -7 -12 -17 -23 -24 -22 -19 -18 -17 -19 -19 -20 -20
Wind_Speed
11 12 12 12 12 13 14 15 15 15 15 15 15 15 14 12 9 9 10 11 11 11 10 11 11 9 10 12 11 10 9 8 8
11 11 11 11 11 11 13 13 13 14 14 15 16 15 15 14 11 10 10 10 13 13 13 12 12 13 13 13 13 13 11 10 9
10 9 9 9 10 10 10 11 11 12 12 12 13 14 14 11 10 11 11 14 14 14 14 14 15 14 14 15 15 15 15 12 10
11 10 9 9 9 10 10 10 10 11 11 12 12 12 11 9 9 10 7 14 14 14 14 14 14 14 14 15 16 16 16 15 14
10 10 10 10 10 10 11 11 11 12 12 13 13 12 12 11 11 8 10 12 12 13 14 15 15 15 14 14 15 15 17 17 17
10 9 10 10 11 11 12 12 12 12 13 13 13 12 12 13 13 12 14 12 12 12 13 14 15 15 16 15 15 14 14 15 17
10 10 10 10 11 12 12 12 12 12 12 13 12 11 12 12 12 13 13 14 15 15 16 16 16 16 16 15 15 16 15 14 14
11 11 11 11 11 11 11 12 12 12 12 12 11 11 11 10 10 12 11 11 13 15 17 19 19 19 19 19 18 18 19 19 19
10 10 10 11 11 11 11 10 11 11 11 11 10 10 10 9 9 12 10 10 10 12 14 16 17 18 18 19 20 21 22 23 24
11 11 11 11 11 11 11 10 11 10 10 11 11 10 10 9 9 10 10 10 11 11 11 12 12 12 13 14 16 18 20 21 23
11 11 11 11 11 11 12 12 12 12 12 11 12 11 11 10 9 8 9 8 8 8 10 10 11 10 10 10 9 15 16 17 19
11 11 11 11 11 11 12 12 12 12 12 12 10 9 7 7 7 7 7 9 8 9 10 11 10 10 10 11 13 15 16 16 15
11 11 11 11 12 12 12 12 12 12 12 12 11 10 9 8 8 7 8 8 9 9 9 9 10 11 11 12 12 14 14 12 11
11 10 11 11 11 11 12 12 12 11 11 10 10 9 8 7 7 7 8 8 8 10 11 11 11 11 12 12 13 13 12 9 6
10 11 11 11 11 11 12 12 12 13 13 11 11 11 9 7 7 8 9 11 12 13 12 12 13 13 14 15 15 15 14 11 9
10 11 11 12 12 13 13 13 13 13 13 13 11 8 7 8 8 11 13 16 17 13 14 15 15 16 16 16 16 17 16 15 13
11 12 12 12 13 14 14 15 15 15 14 12 9 4 6 5 11 16 13 14 15 14 16 17 16 15 15 15 16 15 15 15 14
13 13 13 14 14 15 16 16 16 15 15 12 6 4 4 12 10 12 11 11 14 18 18 21 18 17 16 15 15 13 13 14 14
16 15 15 15 15 16 17 17 17 17 16 16 12 11 12 5 8 10 13 17 14 20 21 22 20 20 18 16 17 15 14 14 14
17 17 17 16 17 17 18 19 19 19 18 18 17 17 15 15 11 14 11 15 18 18 18 18 23 18 17 17 17 16 16 15 14
Wind_Direction
305 303 302 299 294 289 286 284 285 286 286 284 281 280 283 290 293 287 285 287 278 281 276 270 273 277 267 272 281 292 299 299 295
317 312 309 307 303 298 295 295 293 290 287 284 283 280 280 280 279 281 282 284 282 280 277 276 276 272 275 276 280 285 289 293 290
324 319 316 311 307 302 299 298 296 293 291 290 288 286 283 287 285 281 281 272 280 280 281 280 278 277 279 278 277 278 277 281 284
331 327 323 319 314 309 306 303 300 298 296 294 292 291 291 291 283 283 287 267 272 274 275 277 279 279 277 279 281 279 274 269 270
337 333 327 322 316 311 306 302 300 297 294 292 291 289 288 282 285 286 271 276 268 269 273 275 277 279 280 282 282 281 274 271 268
341 340 336 330 323 319 316 313 309 305 301 298 297 294 288 286 281 278 273 271 269 266 269 271 274 274 273 271 276 279 278 272 266
342 338 333 333 331 328 325 323 322 321 315 309 307 303 300 296 292 284 284 276 270 270 274 275 274 274 275 274 269 269 271 271 267
347 344 342 340 340 337 338 336 333 331 330 329 325 316 308 300 295 287 283 277 273 269 268 268 269 269 271 273 271 269 269 270 270
350 347 345 341 341 341 335 332 334 334 331 325 321 318 315 308 296 286 284 279 265 261 263 265 272 275 274 273 272 271 269 269 270
347 344 345 343 343 343 340 339 338 334 330 327 324 317 313 310 303 293 294 288 290 288 288 289 289 286 285 282 276 274 273 273 271
350 349 347 345 344 345 344 343 344 340 335 333 329 323 318 312 306 303 306 298 296 297 299 301 301 299 289 292 296 287 280 278 277
352 346 346 346 347 348 346 349 345 342 337 332 324 316 309 304 300 296 295 303 302 303 302 301 299 294 294 291 290 294 296 297 299
348 345 346 345 348 351 351 348 347 346 341 338 330 320 307 298 291 294 295 298 302 303 303 301 299 298 296 293 295 300 307 311 321
348 343 344 347 349 350 350 348 349 348 343 337 326 316 299 293 292 290 292 296 298 302 302 297 296 295 293 292 294 296 300 300 321
342 338 339 341 342 344 347 349 349 349 348 341 330 313 293 285 283 288 292 292 293 299 298 300 300 298 297 296 296 295 294 291 271
331 330 331 333 333 336 340 343 347 348 348 350 333 320 302 285 283 291 294 292 296 301 304 306 308 303 296 291 290 290 289 286 266
314 316 319 322 323 326 329 332 336 337 344 348 343 315 289 287 298 295 294 299 299 300 303 304 303 299 294 290 287 287 285 278 271
298 301 307 312 316 318 319 320 322 324 326 335 333 317 293 309 290 299 293 291 295 295 301 299 297 294 290 289 287 288 285 283 279
293 293 294 301 308 313 312 312 312 313 313 315 310 300 288 303 307 303 295 296 296 296 300 299 297 298 292 292 292 295 296 291 288
297 290 288 292 299 304 307 309 309 308 304 301 299 298 294 288 269 288 287 296 295 292 294 289 293 289 286 288 289 293 296 294 288
Height
1545 1544 1543 1541 1540 1539 1539 1538 1537 1536 1535 1535 1534 1533 1533 1533 1534 1533 1533 1530 1529 1529 1529 1529 1528 1528 1528 1528 1528 1527 1527 1526 1526
1544 1542 1541 1540 1539 1537 1536 1535 1534 1533 1532 1531 1531 1530 1530 1530 1531 1531 1530 1529 1527 1527 1527 1527 1527 1526 1526 1526 1526 1526 1525 1525 1524
1542 1540 1539 1538 1537 1535 1534 1533 1532 1531 1529 1528 1528 1527 1527 1528 1528 1528 1527 1526 1525 1525 1525 1525 1524 1524 1524 1524 1523 1523 1523 1523 1523
1540 1539 1537 1535 1534 1533 1532 1531 1530 1529 1528 1527 1526 1525 1525 1525 1524 1524 1526 1522 1522 1522 1522 1522 1521 1521 1521 1521 1520 1520 1520 1520 1520
1539 1538 1536 1534 1532 1531 1530 1528 1527 1526 1525 1524 1523 1523 1522 1522 1521 1522 1520 1520 1519 1519 1519 1519 1519 1519 1518 1518 1517 1517 1517 1517 1517
1538 1536 1535 1533 1531 1529 1528 1526 1525 1524 1523 1522 1521 1520 1520 1519 1519 1518 1517 1517 1517 1516 1516 1516 1515 1515 1515 1515 1514 1514 1514 1514 1514
1537 1535 1533 1532 1530 1528 1526 1525 1523 1522 1521 1519 1519 1518 1517 1517 1516 1515 1514 1514 1514 1514 1513 1513 1513 1512 1512 1512 1512 1511 1511 1510 1510
1536 1535 1533 1531 1529 1528 1526 1524 1522 1521 1519 1518 1517 1516 1515 1514 1513 1511 1510 1510 1510 1510 1510 1509 1508 1508 1508 1508 1508 1508 1508 1507 1507
1536 1533 1531 1530 1528 1526 1524 1522 1521 1519 1517 1516 1515 1514 1513 1512 1511 1508 1508 1507 1507 1506 1505 1505 1505 1504 1504 1504 1504 1503 1503 1503 1503
1535 1533 1531 1529 1527 1525 1523 1521 1520 1518 1516 1514 1513 1512 1511 1510 1509 1507 1506 1506 1505 1505 1504 1503 1503 1502 1501 1500 1499 1499 1498 1498 1498
1535 1533 1531 1529 1527 1525 1522 1521 1519 1517 1515 1513 1512 1511 1509 1508 1507 1506 1504 1504 1503 1503 1502 1501 1500 1499 1498 1497 1496 1495 1494 1494 1493
1534 1532 1530 1529 1527 1524 1522 1520 1518 1516 1514 1512 1510 1509 1508 1507 1505 1504 1504 1502 1502 1501 1500 1499 1497 1496 1496 1494 1493 1492 1491 1491 1490
1533 1532 1530 1528 1526 1524 1521 1520 1517 1516 1514 1512 1510 1508 1506 1505 1504 1503 1503 1502 1500 1499 1497 1496 1495 1494 1493 1492 1491 1489 1488 1488 1487
1533 1531 1529 1527 1525 1523 1521 1519 1517 1514 1513 1510 1508 1507 1505 1504 1503 1502 1501 1500 1499 1497 1496 1494 1493 1491 1490 1489 1488 1487 1486 1485 1485
1531 1530 1528 1526 1524 1522 1520 1518 1516 1514 1512 1509 1507 1504 1503 1502 1501 1501 1500 1498 1497 1495 1493 1492 1491 1489 1488 1487 1485 1484 1483 1483 1482
1530 1528 1527 1525 1523 1521 1519 1517 1516 1513 1511 1508 1506 1502 1501 1500 1500 1499 1497 1495 1494 1493 1492 1491 1489 1487 1485 1483 1482 1480 1479 1479 1478
1528 1527 1525 1523 1522 1520 1518 1516 1514 1512 1510 1509 1506 1504 1503 1499 1498 1496 1494 1493 1491 1490 1488 1486 1484 1483 1481 1479 1478 1476 1475 1474 1473
1526 1525 1523 1522 1520 1518 1516 1514 1512 1510 1509 1508 1508 1505 1502 1499 1494 1493 1492 1490 1489 1486 1484 1482 1480 1478 1477 1476 1474 1473 1472 1471 1470
1523 1522 1520 1519 1517 1516 1513 1511 1510 1508 1507 1505 1504 1503 1501 1500 1496 1491 1489 1487 1485 1483 1481 1478 1476 1475 1474 1473 1471 1470 1469 1468 1467
1519 1518 1516 1515 1514 1512 1510 1508 1507 1505 1504 1502 1501 1499 1497 1496 1494 1489 1488 1484 1481 1479 1477 1475 1472 1470 1470 1468 1467 1466 1464 1463 1462